Flag for Japan Weather past 2 weeks in Hiroshima, Japan

Now
83 °F

Light rain. Cloudy.


Feels Like: 85 °F
Forecast: 67 / 80 °F
Wind: 3 mph from South

Location: Iwakuni Marine Corps Air Station

Current Time: Jun 30, 2015 at 3:05:18 PM

Latest Report: Jun 30, 2015 at 1:55 PM


Visibility: N/A

Pressure: 29.57 "Hg

Humidity: 57%

Dew point: 66 °F

Location of HiroshimaLocation

Historic Weather in Hiroshima — Graph

°F

Hiroshima temperature yesterday

Maximum temperature yesterday: 82 °F (at 2:55 PM)
Minimum temperature yesterday: 65 °F (at 3:55 AM)
Average temperature yesterday: 73 °F

Past Weeks' High & Low Weather Summary

 TemperatureHumidityPressure
High86 °F (Jun 24, 2:55 PM)100% (Jun 17, 12:55 AM)29.90 "Hg (Jun 17, 12:55 AM)
Low64 °F (Jun 28, 4:55 AM)53% (Jun 28, 3:55 PM)29.38 "Hg (Jun 26, 4:55 PM)
Average74 °F82%29.73 "Hg
* Reported Jun 15 1:55 PM — Jun 30 1:55 PM, Hiroshima, Weather by CustomWeather, © 2015

Note: Actual official high and low records may vary slightly from our data, if they occured in-between our weather recording intervals... More about our weather records

Advertising

Hiroshima weather history for previous 24 hours

 ConditionsComfort  
Time TempWeatherWind HumidityBarometerVisibility
1:55 PM
Tue, Jun 30
83 °FLight rain. Cloudy.3 mph57%29.57 "HgN/A
12:55 PM78 °FCloudy.5 mph66%29.60 "HgN/A
11:55 AM76 °FMore clouds than sun.6 mph74%29.62 "HgN/A
10:55 AM74 °FMore clouds than sun.5 mph79%29.65 "HgN/A
9:55 AM72 °FMore clouds than sun.5 mph84%29.66 "HgN/A
8:55 AM72 °FOvercast.6 mph87%29.67 "HgN/A
7:55 AM73 °FOvercast.3 mph88%29.67 "HgN/A
6:55 AM73 °FOvercast.No wind88%29.67 "HgN/A
5:55 AM73 °FOvercast.5 mph84%29.69 "HgN/A
4:55 AM73 °FOvercast.No wind84%29.70 "HgN/A
3:55 AM73 °FPassing clouds.No wind84%29.70 "HgN/A
2:55 AM72 °FPassing clouds.3 mph81%29.72 "HgN/A
1:55 AM72 °FPassing clouds.3 mph81%29.73 "HgN/A
12:55 AM73 °FPassing clouds.No wind79%29.73 "HgN/A
11:55 PM
Mon, Jun 29
73 °FPartly cloudy.6 mph79%29.75 "HgN/A
10:55 PM74 °FPassing clouds.5 mph76%29.76 "HgN/A
9:55 PM75 °FPassing clouds.No wind76%29.76 "HgN/A
8:55 PM74 °FPassing clouds.No wind71%29.75 "HgN/A
7:55 PM75 °FPassing clouds.No wind69%29.73 "HgN/A
6:55 PM76 °FPartly sunny.7 mph67%29.71 "HgN/A
5:55 PM79 °FPartly sunny.7 mph62%29.70 "HgN/A
4:55 PM80 °FScattered clouds.7 mph56%29.71 "HgN/A
3:55 PM80 °FPassing clouds.8 mph62%29.73 "HgN/A
Weather by CustomWeather, © 2015

See weather overviewHow to use our weather pages